Home   Weather   Tucson   Past weeks

Flag for USA Past Weather in Tucson, Arizona, USA — Yesterday and Last 2 Weeks

Now
51 °F

Passing clouds.


Feels Like: 49 °F
Forecast: 45 / 63 °F
Wind: 7 mph from East

Location: Davis-Monthan Air Force Base

Current Time: Dec 7, 2016 at 5:53:38 am

Latest Report: Dec 7, 2016 at 4:58 am


Visibility: 10 mi

Pressure: 29.89 "Hg (27.29 "Hg at 758m altitude)

Humidity: 67%

Dew Point: 40 °F

Location of TucsonLocation

Past Weather in Tucson — Graph

°F

Tucson Temperature Yesterday

Maximum temperature yesterday: 67 °F (at 4:58 pm)
Minimum temperature yesterday: 44 °F (at 2:58 am)
Average temperature yesterday: 52 °F

High & Low Weather Summary for the Past Weeks

 TemperatureHumidityPressure
High77 °F (Nov 26, 12:58 pm)100% (Nov 28, 2:58 am)30.16 "Hg (Nov 28, 2:58 am)
Low33 °F (Nov 30, 1:58 am)13% (Nov 23, 12:58 pm)29.71 "Hg (Nov 28, 4:58 pm)
Average53 °F40%29.95 "Hg
* Reported Nov 22 3:58 am — Dec 7 3:58 am, Tucson, Weather by CustomWeather, © 2016

Note: Actual official high and low records may vary slightly from our data, if they occured in-between our weather recording intervals... More about our weather records

Advertising

Tucson Weather History for the Previous 24 Hours

Scroll right to see more
 ConditionsComfort  
Time TempWeatherWind HumidityBarometerVisibility
3:58 am
Wed, Dec 7
51 °FPassing clouds.7 mph64%29.89 "Hg10 mi
2:58 am52 °FClear.5 mph67%29.89 "Hg10 mi
1:58 am56 °FClear.10 mph62%29.87 "Hg10 mi
12:58 am55 °FClear.6 mph58%29.88 "Hg10 mi
11:58 pm
Tue, Dec 6
52 °FClear.3 mph55%29.90 "Hg10 mi
10:58 pm50 °FClear.6 mph50%29.91 "Hg10 mi
9:58 pm50 °FClear.8 mph45%29.91 "Hg10 mi
8:58 pm54 °FClear.5 mph38%29.89 "Hg10 mi
7:58 pm55 °FClear.3 mph36%29.88 "Hg10 mi
6:58 pm59 °FClear.3 mph31%29.88 "Hg10 mi
5:58 pm63 °FClear.7 mph26%29.85 "Hg10 mi
4:58 pm67 °FSunny.10 mph21%29.83 "Hg10 mi
10:58 am61 °FSunny.7 mph32%29.93 "Hg10 mi
9:58 am58 °FPassing clouds.3 mph40%29.95 "Hg10 mi
8:58 am53 °FPassing clouds.10 mph49%29.93 "Hg10 mi
7:58 am49 °FScattered clouds.9 mph55%29.93 "Hg10 mi
6:58 am45 °FClear.8 mph60%29.92 "Hg10 mi
5:58 am46 °FClear.7 mph57%29.90 "Hg10 mi
Weather by CustomWeather, © 2016

See weather overviewHow to use our weather pages